Location: Newark
(41.7772°N, 74.7403°W)
Time: 05:52:35
(UTC+00:00)

Courier 1B - All Passes

Search period start: 06 June 2020 00:00
Search period end: 16 June 2020 00:00
Orbit: 963 x 1209 km, 28.3° (Epoch: 05 June)

Date Brightness Start Highest point End Pass type
(mag) Time Alt. Az. Time Alt. Az. Time Alt. Az.
06 Jun - 02:10:40 10° SSW 02:15:48 22° SSE 02:21:08 10° ESE visible
06 Jun - 04:03:01 10° SW 04:09:02 28° S 04:15:19 10° ESE visible
06 Jun - 05:56:46 10° WSW 06:02:22 23° SSW 06:08:08 10° SE visible
06 Jun - 07:53:53 10° SW 07:55:30 11° SSW 07:57:07 10° SSW visible
07 Jun - 01:17:47 10° SSW 01:22:15 18° SSE 01:26:52 10° ESE visible
07 Jun - 03:09:34 10° SW 03:15:22 27° S 03:21:27 10° ESE visible
07 Jun - 05:02:56 10° WSW 05:08:42 25° S 05:14:40 10° SE visible
07 Jun - 06:58:18 10° SW 07:01:53 14° SSW 07:05:32 10° S visible
08 Jun - 00:25:16 10° S 00:28:45 15° SSE 00:32:19 10° SE daylight
08 Jun - 02:16:15 10° SW 02:21:45 25° S 02:27:31 10° ESE visible
08 Jun - 04:09:15 10° WSW 04:15:02 26° S 04:21:05 10° SE visible
08 Jun - 06:03:48 10° WSW 06:08:16 17° SSW 06:12:52 10° SSE night (unlit)
08 Jun - 23:33:39 10° SSE 23:35:17 11° SSE 23:36:56 10° SE daylight
09 Jun - 01:23:03 10° SW 01:28:11 23° SSE 01:33:31 10° ESE visible
09 Jun - 03:15:40 10° WSW 03:21:23 27° S 03:27:23 10° SE visible
09 Jun - 05:09:39 10° WSW 05:14:38 20° SSW 05:19:47 10° SSE visible
10 Jun - 00:30:03 10° SSW 00:34:38 20° SSE 00:39:25 10° ESE daylight
10 Jun - 02:22:11 10° SW 02:27:46 27° S 02:33:37 10° SE visible
10 Jun - 04:15:46 10° WSW 04:21:01 22° SSW 04:26:29 10° SE visible
10 Jun - 06:12:36 10° SW 06:14:08 11° SSW 06:15:40 10° SSW night (unlit)
10 Jun - 23:37:16 10° SSW 23:41:09 16° SSE 23:45:09 10° SE daylight
11 Jun - 01:28:49 10° SW 01:34:10 26° S 01:39:47 10° ESE visible
11 Jun - 03:22:02 10° WSW 03:27:24 24° S 03:33:01 10° SE visible
11 Jun - 05:17:13 10° SW 05:20:33 14° SSW 05:23:57 10° S night (unlit)
11 Jun - 22:44:54 10° S 22:47:42 13° SSE 22:50:31 10° SE daylight
12 Jun - 00:35:32 10° SW 00:40:38 24° S 00:45:55 10° ESE daylight
12 Jun - 02:28:25 10° WSW 02:33:48 25° S 02:39:26 10° SE visible
12 Jun - 04:22:49 10° SW 04:26:57 16° SSW 04:31:15 10° SSE visible
12 Jun - 23:42:23 10° SW 23:47:07 21° SSE 23:51:58 10° ESE daylight
13 Jun - 01:34:54 10° SW 01:40:14 26° S 01:45:47 10° SE visible
13 Jun - 03:28:47 10° WSW 03:33:23 19° SSW 03:38:10 10° SSE visible
13 Jun - 22:49:24 10° SSW 22:53:37 18° SSE 22:57:55 10° ESE daylight
14 Jun - 00:41:26 10° SW 00:46:40 25° S 00:52:05 10° SE daylight
14 Jun - 02:34:57 10° WSW 02:39:49 21° SSW 02:44:53 10° SE visible
14 Jun - 04:32:02 10° SSW 04:32:52 10° SSW 04:33:42 10° SSW visible
14 Jun - 21:56:39 10° SSW 22:00:10 15° SSE 22:03:41 10° SE daylight
14 Jun - 23:48:05 10° SW 23:53:08 24° S 23:58:20 10° ESE daylight
15 Jun - 01:41:14 10° WSW 01:46:16 23° S 01:51:28 10° SE visible
15 Jun - 03:36:23 10° SW 03:39:19 13° SSW 03:42:21 10° S visible
15 Jun - 21:04:25 10° S 21:06:43 12° SSE 21:09:01 10° SE daylight
15 Jun - 22:54:48 10° SW 22:59:38 22° S 23:04:33 10° ESE daylight
